Location: San Antonio
(29.4240°N, 98.4930°W)
Time: 18:10:01
(UTC-05:00)

ZACube-1 - Pass Details

Date: 10 August 2024
Orbit: 561 x 628 km, 97.7° (Epoch: 15 September)

Event Time Altitude Azimuth Distance (km) Brightness Sun altitude
Rises 03:30:21 0° 30° (NNE) 2,917 ? -37.8°
Reaches altitude 10° 03:33:01 10° 47° (NE) 2,011 ? -37.5°
Enters shadow 03:34:01 14° 58° (ENE) 1,734 ? -37.3°
